Temp
51 51 51 51 51 52 52 52 52 52 52 52 52 53 53 53 53 56 57 56 54 53 55 55 56 54 57 56 54 55 58 57 60 55 58 56 55 58 55 58 55 53 49 44 48 42 39 64 64 57 62 69 72 73
50 51 51 51 51 51 51 51 51 51 51 52 52 53 53 53 52 53 59 60 58 52 54 56 57 59 59 59 56 57 53 53 58 52 59 60 56 61 57 52 62 49 57 50 51 48 61 61 60 63 64 66 71 73
50 50 50 50 51 51 51 51 51 51 51 52 52 52 53 53 52 53 57 57 56 52 54 54 54 58 61 60 62 52 61 58 56 55 54 55 51 61 53 56 58 62 64 57 55 61 62 64 62 64 66 60 73 74
50 50 50 50 50 50 51 51 51 51 51 51 52 52 52 52 52 52 56 57 55 51 46 53 60 56 62 61 59 59 58 59 58 61 45 52 50 59 56 56 59 61 62 58 59 63 63 61 64 64 69 71 73 73
50 49 49 49 50 50 50 51 51 51 51 51 52 52 52 52 52 55 57 57 56 48 43 48 56 59 61 60 58 58 55 53 55 54 54 47 52 55 61 60 59 67 62 59 56 60 63 58 67 69 69 70 72 71
50 50 49 49 49 50 50 50 51 51 51 51 52 52 52 51 49 56 47 57 59 56 39 43 56 55 58 58 56 55 56 55 56 54 55 59 61 55 51 53 64 68 68 66 64 66 65 58 65 69 70 71 72 71
50 50 50 50 49 49 50 50 50 51 51 51 51 51 51 50 56 52 47 51 52 56 43 40 49 57 57 56 58 55 55 55 55 55 54 57 59 58 55 49 62 66 68 67 68 65 61 58 54 62 69 72 69 72
50 50 50 50 50 49 49 50 50 50 51 51 50 50 51 51 50 51 55 51 53 50 50 39 47 51 56 52 49 58 53 53 54 53 57 55 59 58 50 60 65 68 69 67 67 68 65 60 56 56 66 70 68 67
49 49 49 49 50 50 50 49 50 50 50 50 50 50 54 52 50 50 50 51 51 48 38 42 43 45 57 56 57 46 50 47 57 50 52 56 53 50 57 60 64 66 66 65 66 65 63 56 57 55 62 65 65 65
49 49 49 49 50 50 50 50 50 50 50 50 52 51 43 52 51 51 45 39 39 41 43 38 50 45 52 52 52 50 41 45 45 52 58 51 51 59 63 65 67 68 70 60 56 57 61 57 56 57 60 66 67 67
49 49 49 49 50 50 50 50 50 50 49 51 48 48 53 50 50 46 38 38 42 37 41 41 45 42 54 44 46 53 44 38 38 50 49 49 49 57 63 65 67 69 70 69 61 65 68 65 63 62 65 69 69 67
49 49 49 50 50 50 50 50 50 50 51 49 51 53 53 47 42 34 35 39 37 41 48 47 45 49 49 52 46 50 37 41 35 41 44 45 56 63 64 64 66 68 70 68 70 69 69 69 66 65 68 68 68 67
49 49 49 49 50 50 50 49 50 50 50 52 48 40 40 39 29 31 31 37 40 47 49 46 41 40 40 39 44 45 38 34 44 35 37 52 58 63 65 66 66 68 70 70 69 70 71 71 69 69 67 68 67 64
48 49 49 49 49 49 50 50 49 49 49 41 35 28 33 32 38 43 44 44 48 48 46 43 37 36 38 36 44 35 46 47 36 31 39 48 53 56 59 63 65 67 68 69 68 69 68 67 67 67 67 66 64 62
49 48 49 49 49 50 50 50 49 50 46 37 37 30 37 46 48 50 51 47 46 43 38 36 36 37 38 35 38 39 35 35 42 43 51 53 51 54 56 60 63 66 67 68 69 67 65 65 63 63 64 64 64 62
48 48 49 49 49 50 49 48 44 43 44 40 40 39 45 42 44 47 44 42 46 44 40 37 35 33 34 35 34 35 36 39 42 43 50 51 49 50 55 61 64 67 67 68 67 66 64 63 62 61 62 62 63 62
48 48 48 48 48 48 47 42 39 36 39 38 41 47 46 46 45 48 45 48 54 44 37 35 32 34 36 34 37 44 42 42 42 43 46 47 44 49 58 62 64 64 64 64 64 64 63 61 62 60 57 60 62 62
50 49 47 47 46 46 43 41 38 39 35 43 42 48 49 49 46 48 50 53 50 44 37 34 36 32 32 33 42 43 44 45 42 43 43 44 49 53 57 59 61 62 61 62 61 60 60 60 59 59 59 60 60 60
48 50 48 47 50 45 39 41 45 36 43 50 50 50 49 49 52 52 52 52 50 45 37 35 33 35 35 41 39 42 42 41 38 41 44 49 51 54 57 59 61 61 60 59 60 61 61 61 61 62 62 63 61 62
48 48 48 48 49 47 39 41 48 43 43 47 50 48 50 51 54 53 52 48 47 42 37 36 36 37 36 37 38 38 39 40 41 42 44 47 52 56 57 60 57 55 59 59 60 55 60 61 64 64 66 63 63 62
45 45 48 50 50 49 47 45 43 45 47 46 52 50 50 52 50 51 47 50 46 43 38 38 39 38 38 39 41 41 41 42 44 45 44 44 49 54 55 58 62 62 60 60 59 57 60 63 65 66 65 66 66 65
48 47 49 50 45 45 45 50 44 43 40 47 49 51 49 48 49 47 49 46 45 45 44 39 38 35 36 39 45 46 46 47 47 46 44 45 47 49 59 63 63 61 62 63 64 65 65 66 67 67 67 65 63 64
47 49 48 45 39 37 38 49 40 44 39 43 47 41 43 45 48 52 44 44 43 46 44 39 41 41 40 46 47 46 46 46 46 46 50 50 50 52 57 63 64 65 64 65 68 68 66 52 60 67 66 65 64 59
46 40 35 34 37 32 36 33 37 35 41 40 41 37 39 41 44 45 39 37 42 45 40 41 43 43 46 52 51 51 53 56 50 47 49 51 50 51 57 62 67 69 69 69 69 68 66 66 57 66 65 62 60 59
34 34 34 31 35 32 32 32 33 36 34 38 36 34 34 39 35 35 31 35 39 41 40 41 43 44 42 47 52 56 56 58 54 47 49 52 55 58 61 62 62 64 69 67 65 65 65 65 67 66 64 62 61 60
29 34 31 33 34 32 33 31 32 32 35 34 35 39 37 38 35 29 32 35 36 38 39 39 39 42 43 46 45 48 54 59 61 58 58 58 57 62 61 60 59 61 69 69 66 64 64 66 65 63 63 58 44 59
30 33 36 39 35 34 34 36 38 36 32 32 35 34 36 31 29 31 37 43 40 41 43 43 42 41 43 46 47 51 58 60 59 60 63 63 64 65 65 61 58 61 67 68 68 67 65 64 64 63 62 62 61 61
35 35 32 35 36 41 34 35 34 33 34 36 41 34 31 29 29 34 36 41 42 43 44 46 45 45 49 51 53 56 59 59 60 62 63 63 64 64 63 63 61 37 60 60 64 67 67 67 65 64 62 61 61 61
35 39 39 38 38 35 35 34 34 36 42 42 38 34 32 34 35 35 38 40 42 43 43 46 48 46 50 56 58 59 58 59 60 56 55 56 58 60 65 65 65 66 66 61 34 45 57 63 64 64 62 62 61 60
41 45 41 39 35 32 35 38 36 41 44 44 42 38 36 35 36 38 38 39 40 41 44 48 49 49 49 51 53 53 55 57 58 58 55 55 57 62 63 64 64 65 64 64 62 59 36 55 51 61 59 58 57 55
46 45 42 40 35 36 37 43 43 44 46 44 46 42 38 36 38 37 37 37 41 43 43 45 48 51 50 50 50 53 53 57 57 56 58 61 62 61 61 62 61 60 62 60 61 63 63 62 63 59 56 54 51 49
45 43 42 37 38 42 41 42 42 41 41 40 38 42 43 42 34 37 37 37 37 39 37 44 46 44 48 50 52 53 35 56 56 56 57 60 60 61 63 64 63 61 61 61 61 61 59 57 57 57 55 53 50 47
41 41 39 38 39 38 43 43 41 38 39 36 35 36 37 37 32 36 40 39 38 38 39 41 44 48 48 50 49 48 46 54 44 34 35 34 33 41 59 61 60 59 58 57 59 58 55 54 52 49 52 51 49 44
MSLP
1022.32 1022.19 1022.33 1022.26 1022.19 1022.23 1022.19 1022.31 1022.43 1022.33 1022.20 1022.14 1021.95 1021.84 1021.75 1021.63 1021.46 1020.82 1020.67 1021.07 1020.08 1018.73 1017.73 1017.72 1017.44 1016.87 1016.39 1016.05 1014.82 1015.15 1014.60 1014.19 1013.26 1012.14 1010.88 1010.22 1010.18 1009.88 1009.99 1009.53 1009.69 1009.88 1010.25 1010.91 1010.80 1010.39 1009.52 1009.45 1009.09 1008.71 1009.33 1008.27 1007.82 1008.38
1022.16 1021.99 1022.11 1021.99 1022.07 1022.01 1022.05 1022.15 1022.37 1022.31 1022.21 1022.23 1022.06 1021.88 1021.95 1021.74 1021.58 1021.35 1020.20 1020.82 1020.89 1019.93 1018.33 1018.69 1018.27 1018.11 1017.83 1017.41 1016.91 1016.24 1015.54 1015.02 1014.27 1013.87 1011.97 1010.94 1010.28 1009.67 1009.69 1008.85 1009.78 1010.18 1010.03 1010.65 1011.07 1010.29 1010.01 1010.46 1010.41 1010.40 1009.84 1009.11 1008.76 1008.94
1022.07 1021.95 1021.89 1021.81 1021.82 1021.76 1021.88 1022.11 1022.21 1022.26 1022.33 1022.29 1022.05 1022.09 1021.94 1021.85 1021.82 1021.54 1020.73 1020.78 1020.38 1019.52 1018.31 1018.01 1017.47 1017.72 1017.99 1018.19 1018.15 1017.34 1015.86 1015.99 1015.73 1016.47 1014.71 1013.05 1011.74 1010.58 1009.48 1009.11 1008.98 1009.56 1010.12 1010.18 1010.45 1009.61 1010.06 1010.20 1010.70 1010.61 1010.10 1010.73 1009.44 1009.91
1021.95 1021.92 1021.87 1021.75 1021.69 1021.72 1021.79 1021.96 1022.09 1022.16 1022.27 1022.31 1022.25 1022.10 1022.00 1021.95 1021.97 1021.80 1020.91 1021.09 1020.83 1020.14 1018.71 1017.30 1017.78 1017.53 1017.52 1017.71 1017.80 1017.79 1017.27 1017.19 1016.84 1016.02 1015.69 1014.23 1013.00 1012.09 1010.45 1010.13 1009.41 1009.21 1009.76 1009.55 1009.50 1009.49 1010.06 1010.38 1010.45 1010.75 1010.31 1010.27 1010.15 1010.69
1021.67 1021.71 1021.76 1021.75 1021.66 1021.60 1021.70 1021.77 1021.92 1022.06 1022.22 1022.28 1022.23 1022.14 1021.93 1022.01 1022.02 1021.78 1021.48 1021.35 1021.38 1021.25 1019.50 1017.97 1017.46 1017.21 1017.07 1017.26 1017.31 1017.55 1017.71 1017.56 1016.67 1015.75 1014.74 1014.48 1014.03 1012.77 1011.22 1010.63 1009.29 1008.85 1008.93 1008.95 1008.87 1009.65 1009.67 1010.48 1010.20 1010.42 1010.11 1010.19 1010.58 1010.89
1021.36 1021.48 1021.59 1021.66 1021.67 1021.67 1021.58 1021.61 1021.85 1021.98 1022.14 1022.23 1022.21 1022.19 1022.18 1022.13 1022.13 1021.25 1021.17 1021.47 1021.52 1021.43 1021.01 1018.55 1017.49 1016.89 1016.74 1016.81 1016.91 1017.11 1017.29 1017.24 1016.60 1015.44 1014.57 1013.49 1013.39 1013.12 1011.28 1009.91 1009.18 1008.78 1009.24 1009.62 1009.39 1009.81 1010.26 1011.29 1010.90 1010.67 1010.48 1010.64 1011.06 1011.70
1021.06 1021.16 1021.33 1021.49 1021.66 1021.73 1021.72 1021.75 1021.78 1021.87 1021.93 1022.05 1022.13 1022.18 1022.16 1022.15 1021.45 1021.21 1021.60 1021.87 1022.19 1021.67 1020.87 1019.20 1017.04 1016.59 1016.71 1016.49 1016.40 1016.63 1017.02 1016.65 1016.35 1015.38 1014.33 1013.35 1012.55 1012.64 1011.31 1009.87 1009.19 1008.99 1009.12 1009.67 1009.85 1010.28 1010.68 1011.42 1012.15 1012.33 1011.37 1011.11 1011.85 1012.51
1020.83 1020.93 1021.10 1021.25 1021.40 1021.58 1021.62 1021.70 1021.80 1021.80 1021.77 1021.81 1022.02 1022.03 1021.99 1022.02 1022.15 1021.59 1021.66 1022.35 1022.31 1021.57 1020.94 1019.45 1017.17 1016.43 1016.61 1015.79 1015.84 1016.19 1016.12 1016.31 1015.63 1014.94 1013.74 1012.81 1012.27 1011.67 1010.13 1009.53 1009.25 1009.04 1009.19 1009.43 1009.85 1010.22 1010.60 1011.81 1012.41 1013.16 1012.51 1012.23 1012.43 1013.06
1020.68 1020.76 1020.90 1021.03 1021.18 1021.31 1021.48 1021.62 1021.70 1021.67 1021.61 1021.78 1021.91 1022.01 1021.64 1021.65 1021.37 1021.46 1022.24 1022.19 1022.29 1022.05 1020.90 1019.76 1017.54 1015.98 1016.73 1016.11 1015.71 1016.75 1016.30 1015.21 1014.26 1013.61 1013.19 1012.37 1010.82 1009.16 1008.88 1009.00 1008.55 1008.80 1009.02 1009.57 1010.06 1010.69 1011.19 1011.74 1012.29 1013.48 1013.40 1013.10 1013.03 1013.61
1020.35 1020.48 1020.61 1020.74 1020.90 1021.07 1021.27 1021.47 1021.55 1021.56 1021.65 1021.84 1021.81 1021.31 1021.13 1021.33 1021.96 1021.91 1022.30 1022.36 1022.36 1021.89 1021.19 1019.91 1018.45 1017.07 1017.06 1016.38 1015.77 1016.13 1016.62 1014.86 1012.91 1011.97 1011.88 1010.63 1009.29 1009.01 1008.83 1008.60 1008.52 1008.58 1008.61 1009.94 1011.13 1011.17 1011.54 1012.26 1012.60 1012.99 1013.15 1012.77 1013.51 1013.81
1019.83 1020.03 1020.21 1020.36 1020.53 1020.78 1021.01 1021.28 1021.46 1021.57 1021.86 1021.54 1021.05 1020.80 1021.20 1021.87 1021.71 1021.42 1021.28 1021.21 1020.75 1020.55 1020.38 1019.74 1019.00 1017.97 1017.90 1017.30 1016.33 1015.93 1015.63 1015.62 1013.49 1010.95 1010.53 1008.74 1007.87 1007.77 1008.23 1008.18 1008.41 1008.13 1008.21 1008.75 1010.19 1010.57 1010.63 1011.11 1011.64 1012.25 1012.67 1012.59 1013.50 1014.17
1019.21 1019.45 1019.71 1019.92 1020.11 1020.36 1020.69 1021.03 1021.31 1021.39 1021.09 1021.33 1021.15 1021.52 1021.57 1021.21 1021.18 1021.15 1020.39 1020.07 1019.87 1018.33 1018.04 1018.02 1018.49 1018.59 1018.27 1018.01 1017.10 1015.84 1015.92 1015.31 1013.76 1013.34 1010.73 1007.66 1006.67 1006.25 1006.58 1006.90 1007.35 1007.63 1007.89 1008.67 1009.08 1009.35 1009.99 1010.26 1011.11 1011.72 1012.05 1012.79 1013.72 1014.35
1018.64 1018.90 1019.18 1019.46 1019.73 1020.04 1020.36 1020.75 1021.09 1021.23 1021.40 1021.35 1021.36 1021.41 1021.15 1020.92 1020.59 1019.64 1018.71 1018.29 1017.71 1017.61 1017.86 1018.42 1018.92 1019.28 1019.31 1019.09 1017.19 1015.81 1015.07 1014.37 1013.94 1012.98 1010.41 1007.53 1006.66 1006.31 1006.17 1006.23 1006.53 1006.98 1007.37 1007.79 1008.51 1009.03 1009.27 1009.60 1010.65 1011.38 1012.25 1013.24 1014.01 1014.76
1018.11 1018.40 1018.67 1018.97 1019.31 1019.66 1020.03 1020.53 1020.97 1021.33 1021.19 1020.91 1021.10 1020.92 1020.27 1019.50 1018.62 1017.42 1017.19 1017.21 1017.56 1017.87 1018.08 1018.58 1019.32 1019.24 1018.89 1018.39 1016.65 1015.56 1013.70 1013.05 1012.59 1011.77 1009.82 1008.84 1008.41 1008.25 1007.99 1007.12 1006.45 1006.13 1006.65 1007.13 1007.97 1008.71 1009.34 1009.99 1010.79 1011.89 1012.86 1013.51 1014.10 1015.07
1017.78 1018.04 1018.29 1018.60 1018.94 1019.33 1019.78 1020.42 1020.95 1021.15 1020.95 1020.72 1020.61 1019.63 1018.65 1017.70 1017.69 1017.50 1017.44 1017.61 1018.03 1018.73 1019.14 1019.33 1019.38 1019.06 1018.02 1017.48 1016.23 1014.98 1013.72 1012.03 1010.38 1009.68 1009.20 1009.23 1009.36 1008.70 1007.87 1007.07 1006.51 1006.13 1006.26 1006.89 1007.69 1008.81 1009.82 1010.61 1011.51 1012.61 1013.61 1014.14 1014.82 1015.74
1017.72 1017.98 1017.99 1018.19 1018.71 1019.32 1020.01 1020.70 1021.53 1021.82 1021.12 1020.45 1019.87 1018.61 1017.79 1017.67 1017.03 1016.95 1017.28 1017.53 1017.87 1018.14 1018.71 1019.00 1018.65 1018.24 1017.17 1016.29 1015.07 1013.74 1012.35 1010.58 1010.47 1010.86 1010.37 1009.98 1009.64 1008.95 1007.75 1006.77 1006.16 1005.95 1006.41 1006.92 1008.05 1009.20 1010.27 1011.01 1012.01 1013.04 1014.12 1014.83 1015.45 1016.11
1017.78 1017.70 1018.23 1018.62 1019.13 1019.81 1020.49 1021.25 1021.94 1021.63 1020.67 1019.74 1018.51 1018.09 1017.62 1017.20 1016.89 1016.79 1017.34 1016.91 1017.11 1017.73 1017.99 1018.33 1017.95 1016.94 1016.43 1014.98 1013.54 1012.20 1011.21 1011.49 1011.71 1011.51 1010.92 1010.59 1010.03 1008.78 1007.47 1006.63 1006.38 1006.65 1007.23 1007.82 1008.77 1010.01 1010.99 1012.03 1012.89 1013.57 1014.48 1015.42 1016.04 1016.76
1017.49 1018.09 1018.74 1019.07 1019.65 1020.14 1020.95 1021.31 1021.15 1020.46 1019.55 1018.52 1017.72 1016.89 1017.06 1017.21 1016.95 1016.72 1016.61 1016.71 1016.89 1017.41 1018.19 1018.01 1017.85 1016.90 1015.67 1014.06 1012.61 1012.60 1012.47 1012.41 1012.41 1012.13 1011.29 1010.53 1009.43 1008.51 1007.69 1007.42 1007.54 1007.84 1008.22 1008.96 1010.03 1011.14 1011.87 1012.30 1013.34 1014.33 1015.26 1015.92 1016.63 1017.47
1017.81 1017.81 1018.73 1019.38 1019.29 1019.75 1020.13 1020.51 1020.09 1019.27 1018.13 1017.58 1017.29 1017.15 1017.16 1016.85 1016.61 1016.56 1016.47 1016.71 1017.16 1017.66 1017.81 1017.72 1017.15 1016.20 1015.63 1014.87 1014.51 1013.55 1013.31 1013.07 1012.50 1011.73 1010.95 1009.94 1009.19 1008.45 1008.09 1008.17 1008.34 1008.78 1009.38 1010.27 1011.10 1011.53 1012.25 1013.05 1013.89 1014.77 1015.48 1016.01 1016.65 1017.51
1018.37 1018.68 1019.23 1019.51 1019.52 1018.97 1019.12 1019.44 1019.64 1018.71 1017.44 1017.08 1017.01 1016.71 1016.45 1016.05 1016.00 1016.00 1016.13 1016.56 1016.70 1016.99 1017.20 1017.16 1016.98 1016.69 1016.01 1015.13 1014.84 1013.93 1013.40 1012.67 1012.32 1011.39 1010.50 1010.25 1009.51 1008.90 1008.80 1008.80 1009.46 1010.14 1010.51 1011.37 1012.02 1012.53 1013.11 1013.78 1014.55 1015.08 1015.42 1016.18 1016.86 1017.75
1019.30 1019.59 1019.56 1019.28 1019.16 1018.96 1018.63 1018.60 1018.65 1018.53 1017.51 1016.86 1016.36 1016.31 1015.76 1015.96 1015.63 1015.55 1016.06 1016.39 1016.29 1016.60 1017.06 1017.46 1016.85 1016.57 1016.18 1015.04 1013.97 1013.42 1012.73 1012.13 1010.91 1010.79 1010.78 1010.83 1010.55 1009.78 1009.75 1009.82 1009.98 1010.31 1011.01 1011.77 1012.29 1013.02 1013.34 1014.00 1014.69 1015.44 1016.04 1016.49 1017.28 1018.04
1019.21 1019.61 1019.29 1019.26 1018.99 1018.87 1018.61 1018.25 1018.19 1018.34 1018.06 1016.65 1016.26 1016.01 1015.57 1015.48 1015.45 1015.78 1016.33 1016.03 1016.40 1016.96 1017.41 1017.63 1017.29 1016.79 1015.77 1014.54 1013.19 1012.71 1012.15 1011.62 1011.60 1011.42 1011.12 1011.07 1010.94 1010.62 1010.26 1010.28 1010.43 1010.89 1011.41 1011.95 1012.54 1012.96 1013.78 1014.51 1015.15 1015.81 1016.26 1017.13 1017.70 1018.56
1019.31 1019.17 1019.04 1019.13 1019.06 1018.99 1018.67 1018.26 1018.01 1017.32 1016.87 1016.44 1016.39 1016.18 1016.02 1015.99 1016.04 1016.27 1016.22 1016.92 1017.61 1017.92 1017.99 1017.99 1017.26 1016.44 1015.51 1014.57 1013.90 1013.11 1012.58 1012.21 1012.00 1012.00 1011.85 1011.67 1011.79 1011.77 1011.49 1010.85 1010.86 1011.05 1011.72 1012.37 1012.87 1013.47 1014.18 1015.11 1015.68 1015.89 1016.71 1017.41 1018.17 1019.29
1019.39 1019.38 1019.10 1019.07 1018.89 1018.71 1018.97 1018.61 1018.48 1018.06 1017.43 1016.88 1016.43 1016.43 1016.52 1016.86 1017.15 1016.44 1016.88 1018.02 1018.41 1018.33 1018.38 1017.82 1016.79 1016.09 1015.15 1014.18 1013.73 1013.36 1012.98 1012.53 1012.76 1012.98 1013.21 1012.99 1012.87 1012.57 1012.35 1011.83 1011.57 1011.87 1012.30 1012.77 1013.17 1013.89 1014.90 1015.26 1016.01 1016.35 1016.96 1017.80 1018.60 1019.19
1019.39 1019.19 1019.22 1018.66 1018.60 1018.54 1018.22 1018.09 1018.03 1017.57 1017.09 1016.83 1016.77 1017.11 1017.56 1017.80 1017.60 1017.78 1018.47 1019.05 1019.08 1019.01 1018.88 1018.53 1017.45 1016.69 1016.13 1015.64 1014.73 1013.86 1013.62 1012.94 1012.99 1013.91 1014.17 1013.63 1013.37 1013.18 1012.98 1013.29 1013.71 1013.85 1013.51 1013.70 1014.04 1014.50 1015.09 1015.69 1015.81 1016.30 1017.01 1017.70 1018.23 1018.90
1018.76 1018.52 1018.66 1017.97 1017.83 1017.79 1017.46 1017.25 1017.44 1017.38 1017.15 1017.10 1017.23 1017.56 1017.99 1017.73 1018.01 1019.03 1019.44 1019.81 1019.85 1019.76 1019.63 1019.39 1018.73 1017.79 1017.01 1016.49 1015.92 1015.42 1014.67 1014.07 1013.70 1013.83 1014.32 1014.71 1014.07 1013.28 1013.27 1013.57 1013.94 1014.47 1014.30 1014.23 1014.56 1015.01 1015.31 1015.61 1016.09 1016.58 1017.01 1017.88 1018.57 1019.06
1018.28 1017.84 1017.86 1017.83 1017.71 1017.47 1017.14 1017.28 1017.23 1017.19 1017.18 1017.17 1017.43 1017.84 1017.97 1018.28 1019.21 1020.22 1020.29 1020.06 1020.06 1020.03 1019.99 1019.81 1019.33 1018.63 1018.11 1017.28 1016.84 1016.10 1015.35 1014.86 1014.65 1014.60 1014.41 1014.48 1014.54 1014.33 1014.22 1014.67 1015.27 1015.58 1015.37 1015.24 1015.27 1015.42 1015.68 1016.03 1016.48 1016.84 1017.39 1018.06 1018.72 1019.12
1018.11 1017.87 1017.60 1017.70 1017.32 1017.09 1017.18 1017.29 1017.36 1017.47 1017.45 1017.59 1017.43 1017.85 1018.82 1019.81 1020.59 1020.93 1020.78 1020.57 1020.62 1020.44 1020.09 1019.73 1019.50 1019.13 1018.51 1017.78 1017.07 1016.29 1015.94 1015.71 1015.61 1015.34 1015.29 1015.40 1015.45 1015.56 1015.79 1016.20 1016.62 1016.67 1016.61 1016.80 1016.50 1016.30 1016.34 1016.47 1016.75 1017.13 1017.54 1017.95 1018.66 1019.29
1017.64 1017.33 1017.24 1017.02 1017.19 1017.63 1017.85 1017.86 1018.05 1018.17 1017.79 1017.51 1017.75 1018.94 1020.21 1020.94 1021.29 1021.30 1021.01 1020.67 1020.53 1020.32 1019.87 1019.41 1019.17 1019.19 1018.65 1017.88 1017.39 1016.93 1016.60 1015.99 1015.31 1015.32 1015.38 1015.49 1015.65 1016.16 1016.33 1016.40 1016.52 1016.68 1016.86 1017.43 1017.79 1017.73 1017.71 1017.29 1017.33 1017.42 1017.76 1018.21 1018.95 1019.59
1016.97 1016.77 1016.73 1017.24 1017.71 1018.41 1018.89 1018.84 1018.89 1018.82 1018.50 1018.61 1019.09 1020.00 1020.73 1021.30 1021.64 1021.57 1021.12 1020.68 1020.39 1020.17 1019.74 1019.40 1019.16 1018.98 1018.66 1018.22 1017.72 1017.71 1017.75 1017.31 1016.88 1016.52 1016.42 1016.70 1016.91 1017.02 1017.01 1016.93 1017.06 1017.17 1017.37 1017.39 1017.64 1018.21 1018.53 1018.17 1018.37 1018.35 1018.54 1018.94 1019.45 1020.04
1016.94 1016.74 1017.06 1017.60 1018.42 1019.21 1019.42 1019.13 1019.16 1018.93 1018.61 1018.75 1018.89 1019.43 1020.19 1020.93 1021.49 1021.69 1021.45 1021.05 1020.53 1020.37 1020.10 1019.68 1019.28 1019.07 1018.97 1018.70 1018.58 1018.12 1018.04 1018.19 1018.25 1018.29 1018.31 1018.01 1017.76 1017.87 1017.85 1017.89 1018.03 1018.06 1018.04 1018.10 1018.01 1017.77 1017.95 1018.03 1018.20 1018.48 1018.87 1019.32 1019.89 1020.37
1016.87 1016.85 1017.07 1017.73 1018.44 1019.05 1019.32 1019.02 1018.92 1019.00 1019.15 1019.27 1019.69 1019.79 1020.00 1020.31 1021.40 1021.96 1022.16 1021.75 1021.23 1020.73 1020.54 1019.97 1019.69 1019.75 1019.51 1019.57 1019.58 1019.38 1019.73 1018.99 1019.04 1019.15 1018.99 1018.87 1018.94 1018.79 1018.41 1018.27 1018.28 1018.32 1018.23 1018.14 1018.06 1017.93 1018.06 1018.34 1018.53 1018.73 1019.07 1019.62 1020.28 1020.88
1016.81 1017.02 1017.44 1017.95 1018.25 1018.40 1018.59 1018.62 1018.73 1019.19 1019.47 1019.86 1020.27 1020.50 1020.65 1021.03 1021.86 1022.53 1022.57 1022.29 1022.02 1021.64 1021.23 1020.91 1020.68 1020.43 1020.43 1020.22 1020.08 1020.03 1019.81 1019.63 1020.37 1020.86 1020.71 1020.75 1020.70 1020.33 1019.15 1018.82 1019.00 1018.90 1018.67 1018.55 1018.45 1018.42 1018.45 1018.63 1019.03 1019.40 1019.52 1019.93 1020.61 1021.18
Wind_Speed
7 5 5 5 5 3 1 3 4 4 3 3 3 4 4 4 3 7 4 4 5 3 4 4 3 6 6 5 6 8 6 7 6 11 10 6 8 8 8 5 4 5 5 3 5 6 10 6 5 8 6 2 11 12
5 4 6 5 5 5 3 3 2 2 3 4 3 4 4 3 2 6 0 1 3 5 5 3 7 9 11 7 6 3 5 3 6 5 4 5 6 6 9 7 6 5 6 4 8 5 4 3 6 4 6 8 8 14
5 4 5 3 4 4 4 4 3 2 3 3 4 3 3 2 1 6 3 4 4 3 5 5 3 2 8 12 10 5 3 3 4 2 4 3 7 4 7 10 5 8 7 5 6 8 9 7 1 8 4 6 8 15
4 3 3 4 2 2 2 6 4 4 3 1 2 4 1 2 3 6 3 4 3 4 5 4 3 3 1 6 11 15 10 1 4 3 1 4 4 5 4 3 7 3 7 6 9 8 7 8 7 11 9 13 15 16
6 3 2 2 3 2 4 5 5 5 4 1 1 4 5 4 4 3 3 2 3 5 5 5 10 3 2 10 12 10 11 11 7 6 6 4 5 5 5 5 8 8 8 7 6 8 4 2 6 7 12 15 17 18
6 6 4 2 1 2 4 4 4 4 5 3 1 4 4 4 5 3 3 3 1 2 3 4 5 3 1 3 8 11 7 7 8 6 6 7 7 5 6 8 12 9 6 7 8 2 4 5 9 6 14 15 15 16
8 7 7 5 3 1 1 1 1 1 4 4 0 2 2 3 6 3 6 3 2 2 2 5 3 3 4 3 3 5 9 6 6 8 9 10 9 9 11 11 8 3 6 2 2 5 5 5 7 6 5 14 15 16
5 5 6 6 5 3 2 1 2 2 2 5 1 2 2 5 3 4 4 7 3 4 2 4 3 4 4 0 3 2 5 7 7 9 7 10 10 10 11 15 19 14 9 2 5 2 1 15 16 4 5 13 17 16
6 5 6 5 5 5 4 3 2 3 3 6 6 4 4 3 1 4 7 3 4 4 2 3 5 3 2 1 1 2 4 6 5 9 13 9 12 13 9 14 12 15 17 5 5 8 10 13 18 7 7 12 13 15
9 8 8 8 7 6 6 4 2 1 7 8 4 3 2 2 6 2 6 2 2 1 3 4 5 6 5 4 3 3 2 5 5 10 9 15 16 18 17 7 11 13 13 12 4 13 14 13 12 14 17 12 13 14
12 11 10 8 10 9 8 7 4 7 8 4 3 1 4 1 3 1 3 4 3 4 6 5 7 5 1 5 5 3 1 2 5 4 7 8 15 17 21 20 15 13 11 16 17 15 18 18 15 12 13 14 13 15
14 13 12 11 9 8 9 9 8 6 2 2 3 1 2 2 1 3 4 3 5 4 5 3 2 1 3 3 5 4 3 3 6 8 5 6 9 10 17 22 24 21 13 13 13 17 17 15 14 14 16 14 15 15
12 12 12 12 12 11 12 11 12 5 8 3 2 1 3 3 4 5 7 5 5 5 3 2 3 3 3 4 6 4 7 7 1 3 5 6 4 3 7 13 18 20 20 17 13 11 11 12 16 17 17 15 16 16
11 11 12 13 13 12 11 13 14 10 3 3 4 4 5 4 6 4 3 3 3 4 6 4 2 3 3 4 5 5 5 4 5 3 5 6 8 11 10 9 10 13 16 18 15 11 12 15 15 15 14 15 16 16
9 9 10 10 11 11 14 13 17 4 3 3 3 5 7 4 2 2 2 4 3 4 3 2 3 3 3 5 4 5 5 8 8 9 2 6 11 13 13 9 10 13 13 15 13 14 16 18 18 17 15 15 15 14
8 3 4 10 13 15 12 14 4 1 3 3 4 6 4 4 5 5 3 3 3 4 3 2 3 4 7 4 5 7 6 6 3 4 8 8 12 13 12 9 10 11 15 14 15 16 17 20 20 19 17 15 15 14
8 2 11 13 16 15 15 5 2 4 5 4 5 5 6 4 4 2 4 5 2 3 2 2 5 5 3 5 6 5 5 5 8 8 6 10 14 13 7 7 10 14 15 16 18 19 19 20 19 18 17 15 15 14
2 11 16 16 14 8 2 2 3 4 5 6 4 2 4 3 5 4 5 3 4 1 1 3 3 4 4 5 4 4 6 7 5 8 6 13 11 6 7 11 14 16 18 20 20 21 20 20 18 14 17 16 15 14
2 7 19 19 7 4 5 5 3 4 5 2 3 4 3 4 5 6 5 3 2 3 2 3 5 3 3 5 9 11 9 6 7 9 10 4 4 6 13 15 17 19 20 20 18 14 14 16 15 13 12 12 11 10
17 20 16 8 4 2 3 3 2 4 3 2 3 4 3 2 2 3 2 3 3 3 2 2 3 3 5 10 8 10 8 8 7 6 1 5 3 10 15 16 13 15 15 18 15 13 13 13 12 11 10 11 10 10
5 2 2 2 2 2 2 3 3 3 3 3 1 3 1 2 4 1 1 3 3 1 3 3 8 7 9 11 10 9 10 9 4 1 6 8 6 9 11 12 14 13 13 12 11 11 13 13 12 11 11 10 10 8
3 4 2 1 1 2 3 3 2 3 3 2 3 2 2 2 1 2 1 4 3 4 5 5 7 6 10 13 6 8 7 4 5 6 9 6 8 8 11 12 13 13 11 13 14 13 12 11 11 10 10 9 8 9
5 3 2 3 3 2 2 1 5 4 4 2 1 2 2 1 2 2 1 4 3 4 5 6 11 12 11 5 8 7 9 9 8 6 10 9 8 8 6 9 10 13 13 11 10 10 10 10 7 9 10 8 8 9
3 1 3 3 5 3 2 3 2 2 1 3 2 1 1 2 3 2 4 2 3 5 6 10 8 7 9 9 8 9 7 7 10 6 6 8 8 7 7 8 9 8 9 7 8 9 9 8 8 8 9 10 9 9
3 3 3 4 4 4 5 5 4 4 4 4 1 2 2 1 1 3 2 2 4 5 6 7 8 8 8 8 9 9 11 7 11 8 4 5 5 6 8 9 8 6 4 6 6 7 7 8 8 9 10 10 12 12
4 3 4 2 2 3 3 5 4 4 3 2 3 3 2 3 3 3 1 2 2 3 4 5 7 8 9 10 10 9 8 5 9 10 12 9 3 4 7 9 9 9 6 6 7 9 9 8 9 11 10 10 8 11
3 1 2 1 2 2 2 2 2 2 4 3 3 4 4 3 3 2 2 1 2 2 2 3 5 6 6 7 8 6 6 8 9 7 7 8 8 7 7 8 9 6 6 6 6 7 8 8 8 7 8 9 10 9
2 2 3 4 1 3 4 3 4 4 3 2 1 4 3 4 3 1 2 2 4 4 4 2 3 5 5 6 6 5 5 4 6 8 9 9 8 8 9 8 7 6 8 8 6 5 4 4 5 6 7 8 8 7
2 1 1 8 5 4 5 4 4 3 3 2 3 4 3 2 2 2 3 4 3 4 4 4 3 2 3 3 4 5 5 5 6 9 9 7 7 7 6 6 5 5 5 7 8 8 8 4 2 4 6 6 7 7
5 4 4 7 5 5 5 4 3 5 7 8 6 4 3 2 2 3 4 3 1 1 2 2 2 2 1 1 4 5 6 6 7 6 5 6 6 5 5 4 4 4 4 3 5 6 2 6 5 5 5 6 6 7
2 3 7 5 4 3 2 6 6 5 5 7 6 7 4 3 2 5 7 6 3 2 3 5 4 3 2 2 4 3 6 5 6 6 3 2 4 5 5 4 4 2 1 3 4 3 3 3 2 4 6 6 7 7
0 2 3 4 3 4 4 2 4 4 3 5 5 4 2 3 4 4 7 7 6 5 5 3 4 4 4 5 2 3 3 4 5 5 4 4 4 3 4 4 5 4 4 2 3 4 4 4 3 4 6 8 10 10
2 2 3 3 3 4 2 2 3 4 5 4 5 4 4 4 4 3 3 5 5 5 5 5 4 4 4 4 4 4 4 5 6 4 5 6 5 6 4 4 4 5 4 4 2 2 4 6 5 6 7 8 10 7
Wind_Direction
272 258 273 283 308 210 98 105 96 80 59 25 20 17 2 356 352 294 84 25 316 300 289 262 270 264 227 246 268 73 223 193 226 238 234 206 232 203 253 232 250 246 218 217 237 222 236 4 201 200 1 292 152 160
331 276 253 267 270 205 188 168 156 105 60 21 33 31 12 348 5 307 66 74 327 263 335 309 288 280 279 308 317 210 358 348 7 290 273 288 209 195 240 239 176 229 230 185 210 228 297 348 313 301 20 0 187 157
297 320 355 245 236 213 183 191 178 134 97 52 33 5 11 21 32 325 9 354 263 272 251 226 211 197 225 240 245 273 218 321 136 357 310 285 252 303 231 234 235 210 187 235 213 225 230 248 305 309 105 313 183 138
259 290 308 351 249 214 225 196 190 164 142 82 354 5 4 116 201 302 338 17 299 295 281 97 167 216 324 216 219 226 269 229 311 231 23 302 278 340 275 335 262 26 170 247 254 259 194 217 214 212 185 204 144 138
229 240 289 314 353 221 231 226 192 187 180 169 17 33 24 113 163 269 337 348 305 309 325 307 303 173 332 226 230 213 229 240 253 247 223 205 280 264 244 274 251 222 255 260 276 349 144 300 171 167 160 152 145 133
225 222 218 259 329 13 50 138 186 200 202 200 74 52 48 142 218 238 183 49 55 296 284 293 9 276 343 245 219 214 207 221 238 230 245 247 225 261 250 250 256 271 260 301 276 78 56 71 65 156 162 149 139 134
242 230 219 207 215 247 57 55 122 40 217 211 215 357 336 181 262 313 18 79 71 316 280 291 273 120 311 270 183 192 204 220 241 231 238 256 232 205 258 256 236 222 182 191 337 155 157 115 77 20 180 139 133 130
267 225 202 206 211 217 222 249 277 301 298 200 60 27 132 192 256 226 128 173 231 274 282 288 297 227 360 220 174 178 192 205 213 242 245 232 235 235 248 241 245 255 277 159 319 295 314 139 109 13 261 152 140 137
262 252 220 217 229 227 211 229 265 315 186 140 117 130 188 237 228 74 65 201 223 288 284 283 296 23 355 318 295 120 285 223 225 219 231 242 227 228 220 233 230 229 226 195 344 111 113 142 131 172 214 178 149 141
244 243 241 234 229 229 209 212 238 343 143 138 210 225 160 113 19 264 161 155 173 264 249 252 273 271 343 317 274 224 180 255 239 218 228 225 244 247 242 254 238 231 210 141 231 156 140 139 189 215 209 182 168 153
236 237 234 240 224 216 216 194 193 148 155 212 196 201 75 120 217 192 209 231 181 211 186 216 236 299 300 286 286 261 290 284 268 193 232 229 232 232 232 236 237 238 222 187 181 234 195 190 193 186 201 187 159 152
235 234 233 233 230 220 211 191 179 198 177 64 50 97 191 211 221 220 205 173 217 258 154 244 58 323 288 268 253 216 224 249 251 346 251 241 242 224 208 214 220 227 205 193 211 213 222 204 202 202 188 165 161 144
227 229 228 227 218 221 212 188 186 175 146 157 176 155 219 177 226 223 189 193 211 174 163 173 263 216 191 249 252 244 215 228 307 218 248 248 49 13 252 221 221 223 225 228 215 222 211 189 168 176 161 158 140 137
212 222 222 219 216 217 205 179 169 165 208 185 171 201 238 181 237 211 272 16 19 296 303 322 294 248 183 232 248 243 255 245 213 217 263 333 8 329 310 278 264 215 209 206 202 190 166 153 149 148 147 144 137 135
216 223 218 215 205 195 170 165 166 173 210 185 201 229 212 240 229 249 289 300 349 345 308 209 214 246 217 241 230 230 245 231 217 239 280 340 321 315 299 273 238 220 190 189 172 159 153 142 139 135 138 133 124 129
136 116 183 164 157 148 154 134 80 30 266 222 232 245 202 243 239 216 263 289 258 210 202 206 241 231 223 238 220 212 245 245 55 352 317 317 320 305 286 258 218 181 175 158 150 148 144 138 134 128 124 124 126 127
173 113 135 133 123 125 120 83 91 206 210 215 221 232 265 289 300 305 228 287 319 291 273 248 225 228 296 222 225 222 254 355 338 318 292 319 298 286 255 186 158 145 142 133 132 138 128 124 125 120 119 120 117 117
125 130 125 130 131 113 66 111 209 205 231 232 248 201 203 269 288 290 280 291 285 259 218 250 302 239 255 287 272 21 318 321 325 312 332 287 275 244 159 144 139 132 127 126 124 128 131 123 120 117 122 120 116 118
74 165 162 152 155 140 161 174 228 240 236 264 243 233 245 260 249 258 283 293 218 214 227 224 242 256 281 294 308 304 308 305 303 305 278 255 254 152 133 131 126 123 122 125 130 123 120 121 121 126 127 129 122 127
105 112 130 143 226 195 139 138 221 271 259 85 230 219 237 281 337 272 272 169 250 317 260 293 304 285 292 295 285 279 285 284 283 300 101 64 35 121 129 124 111 119 117 115 116 114 118 122 123 129 127 125 129 131
110 93 77 244 183 270 302 167 189 266 305 251 130 247 242 188 249 280 65 253 262 329 359 312 303 314 298 280 266 263 269 262 270 16 97 96 87 103 101 116 125 119 119 123 114 117 127 125 127 119 134 125 122 126
112 193 185 182 267 210 256 197 226 184 232 252 220 215 250 214 226 91 271 227 32 24 356 316 313 314 315 321 9 22 357 79 96 92 89 69 87 100 115 120 122 117 117 122 135 132 129 129 129 137 128 117 129 116
161 198 169 185 210 211 256 242 230 206 243 158 177 229 179 280 33 286 124 43 42 349 351 316 317 305 283 292 59 12 14 48 69 61 81 74 66 55 77 129 122 125 128 132 128 129 124 116 132 141 123 139 123 124
66 188 206 211 213 203 183 190 207 253 218 248 213 195 95 49 307 262 76 48 2 359 359 342 324 353 4 68 70 36 26 52 95 65 47 98 100 45 62 67 78 83 109 122 119 120 139 139 131 145 147 139 144 149
232 172 228 212 184 211 205 161 189 195 210 201 158 84 123 194 100 46 51 15 5 4 2 350 331 358 4 17 10 49 31 60 83 107 28 36 86 91 93 92 87 79 111 131 140 137 139 155 161 152 153 159 158 153
249 182 225 268 172 221 204 156 166 177 147 145 153 92 199 191 152 81 53 43 12 5 2 1 334 343 358 4 3 7 8 17 113 116 122 123 239 61 83 86 84 70 53 96 117 128 136 140 143 150 151 141 129 150
275 242 202 245 282 267 213 92 110 142 176 162 138 177 196 122 95 82 334 299 15 14 346 335 319 323 337 353 357 342 30 55 72 87 85 74 61 47 68 81 77 68 77 83 103 118 126 134 145 147 145 150 164 160
318 317 338 2 55 40 61 58 45 40 36 11 203 48 69 38 62 26 288 322 308 294 292 276 280 295 322 353 351 10 48 70 110 115 104 90 81 80 82 80 72 43 58 32 24 76 89 127 144 156 161 160 161 159
308 274 212 52 90 62 37 42 46 31 309 233 79 67 84 63 344 302 273 263 264 263 259 208 167 270 280 329 16 30 23 357 104 104 96 94 86 64 53 59 70 67 83 90 57 34 36 42 77 146 159 157 156 161
46 9 56 48 44 48 26 21 55 40 44 54 78 109 120 96 356 332 356 346 257 212 226 204 180 196 117 25 43 60 38 24 25 34 79 77 75 62 64 63 81 73 56 71 106 111 129 131 127 124 132 143 153 155
19 47 69 64 70 65 60 71 80 84 79 76 78 84 89 142 127 26 11 348 334 204 180 181 170 127 102 76 33 9 90 55 46 56 48 112 113 84 77 82 87 87 121 188 211 225 173 197 164 149 155 154 164 162
75 90 109 104 97 131 198 148 93 75 58 54 37 32 80 120 59 36 4 351 10 24 22 43 86 73 38 27 36 78 254 32 34 28 52 73 82 79 79 59 53 36 16 334 289 265 229 242 237 209 171 165 163 165
111 120 110 116 161 170 151 173 122 114 83 55 35 16 22 31 65 18 4 360 359 356 6 31 34 51 60 52 53 65 15 69 71 52 42 31 17 347 2 45 35 23 16 2 348 281 239 222 193 204 202 171 167 156